Location: Newark
(38.8913°N, 77.0259°W)
Time: 01:32:51
(UTC+00:00)

Hubble Space Telescope - Visible Passes

Search period start: 11 December 2019 00:00
Search period end: 21 December 2019 00:00
Orbit: 536 x 540 km, 28.5° (Epoch: 10 December)

Date Brightness Start Highest point End Pass type
(mag) Time Alt. Az. Time Alt. Az. Time Alt. Az.
14 Dec 3.4 11:39:29 10° SSW 11:42:08 17° S 11:44:47 10° SE visible
15 Dec 3.2 11:28:37 10° SW 11:31:26 18° S 11:34:14 10° SE visible
16 Dec 3.6 09:40:33 11° SSE 09:40:33 11° SSE 09:41:31 10° SE visible
16 Dec 3.1 11:17:48 10° SW 11:20:43 19° S 11:23:38 10° SE visible
17 Dec 3.7 09:30:48 12° SE 09:30:48 12° SE 09:31:26 10° SE visible
17 Dec 3.0 11:07:03 10° SW 11:10:01 19° S 11:12:59 10° SE visible
18 Dec 3.9 09:20:58 10° SE 09:20:58 10° SE 09:21:06 10° SE visible
18 Dec 2.9 10:56:19 10° SW 10:59:19 19° S 11:02:17 10° SE visible
19 Dec 2.9 10:46:26 13° SW 10:48:36 19° S 10:51:33 10° SE visible
20 Dec 2.8 10:36:30 16° SSW 10:37:54 18° S 10:40:46 10° SE visible
